K198S  W84  0.0   0.1+    K199T  W84  0.0   0.1+    K21A4  W84  0.0   0.2- 
K198S  W84  0.0   0.1-    K2196  W84  0.3+  0.5+    K21A4  W84  0.0   0.0  
K199T  W84  0.0   0.1-    K2196  W84  0.3-  0.4-    
2019 SL235                                                                      
Epoch 2023 Sept. 13.0 TT = JDT 2460200.5                Alexandersen            
M 272.54149              (2000.0)            P               Q                  
n   0.00335165     Peri.   21.10959     -0.01792771     -0.99971862             
a  44.2212180      Node    69.92030     +0.91494905     -0.02266806             
e   0.0647470      Incl.    0.94762     +0.40317097     +0.00698825             
P 294              H    8.60          G   0.15           U   9                  
Residuals in seconds of arc
K198S  W84  0.0   0.1-    K199T  W84  0.0   0.1-    K20AI  W84  0.1+  0.0  
K198S  W84  0.0   0.0     K20AH  W84  0.1+  0.0     K20AI  W84  0.1-  0.0  
K199T  W84  0.1-  0.2+    K20AH  W84  0.1-  0.0     
2020 UY73                                                                       
Epoch 2023 Sept. 13.0 TT = JDT 2460200.5                Alexandersen            
M  46.63921              (2000.0)            P               Q                  
n   0.00345499     Peri.  266.29263     +0.57491598     +0.81806585             
a  43.3349056      Node    38.81449     -0.74054613     +0.52829996             
e   0.0563087      Incl.    1.41587     -0.34794115     +0.22730466             
P 285              H    9.91          G   0.15           U   8                  
Residuals in seconds of arc
K198S  W84  0.0   0.1+    K20AI  W84  0.2+  0.0     K21A7  W84  0.0   0.2- 
K198S  W84  0.1+  0.2-    K20AI  W84  0.2-  0.3+    K21A7  W84  0.2+  0.1+ 
K20AH  W84  0.2-  0.3+    K21A4  W84  0.1-  0.1+    
K20AH  W84  0.1+  0.3-    K21A4  W84  0.0   0.2-    
2021 RY236                                                                      
Epoch 2023 Sept. 13.0 TT = JDT 2460200.5                Alexandersen            
M 337.90729              (2000.0)            P               Q                  
n   0.00345638     Peri.  232.52434     +0.94262793     -0.33354905             
a  43.3233273      Node   146.95329     +0.31385923     +0.87105966             
e   0.0295587      Incl.    1.47720     +0.11377598     +0.36055527             
P 285              H    8.82          G   0.15           U   7                  
Residuals in seconds of arc
K198S  W84  0.0   0.1+    K20AH  W84  0.0   0.0     K21A7  W84  0.0   0.0  
K198S  W84  0.0   0.1-    K2195  W84  0.0   0.1+    K21A7  W84  0.0   0.0  
K20AH  W84  0.0   0.0     K2195  W84  0.0   0.1-    
2021 RZ236                                                                      
Epoch 2023 Sept. 13.0 TT = JDT 2460200.5                Alexandersen            
M 215.75543              (2000.0)            P               Q                  
n   0.00339673     Peri.  150.26411     -0.80894148     -0.58722568             
a  43.8290738      Node   353.55822     +0.47824874     -0.62971010             
e   0.0788573      Incl.   14.41130     +0.34189445     -0.50855796             
P 290              H    9.27          G   0.15           U   7                  
Residuals in seconds of arc
K198T  W84  0.1+  0.1-    K20AH  W84  0.0   0.1-    K21A3  W84  0.1-  0.0  
K198T  W84  0.1-  0.1+    K2197  W84  0.3-  0.2+    K21A3  W84  0.1+  0.1- 
K20AH  W84  0.0   0.0     K2197  W84  0.3+  0.1-    
M. P. C. Staff               (C) Copyright 2023 MPC           M.P.E.C. 2023-W145
    
    
More information about the Iaude
mailing list